Stations météo

réclame
Mon MeteoGroup
Brüssel, Belgique (6451): Température de l'air & dewpoint: 10.11.2018 00:00:00 - 16.11.2018 00:00:00 (CET)Brüssel, Belgique (6451): Vitesse du vent & gusts: 10.11.2018 00:00:00 - 16.11.2018 00:00:00 (CET)Brüssel, Belgique (6451): Direction du vent: 10.11.2018 00:00:00 - 16.11.2018 00:00:00 (CET)Brüssel, Belgique (6451): reduced air pressure: 10.11.2018 00:00:00 - 16.11.2018 00:00:00 (CET)Brüssel, Belgique (6451): visibility: 10.11.2018 00:00:00 - 16.11.2018 00:00:00 (CET)
Date & Time tt [°C] td [°C] ff [km/h] ff [knt] fx [km/h] fx [knt] dd ppp [hPa] vv [km]
16.11.2018 00:00:00 5,6 5,5 9 5 18 10 SSW 1025,2 1,0
15.11.2018 23:00:00 6,5 6,5 11 6 14 8 S 1025,1 0,5
15.11.2018 22:00:00 5,2 4,7 7 4 - - SSW 1025,0 0,5
15.11.2018 21:00:00 6,2 4,3 8 4 14 8 SSW 1024,5 10
15.11.2018 20:00:00 7,3 4,6 9 5 14 8 SSE 1024,3 10
15.11.2018 19:00:00 9,3 4,5 7 4 - - SE 1023,9 50
15.11.2018 18:00:00 10,6 6,2 8 4 11 6 SE 1023,7 10
15.11.2018 17:00:00 11,9 6,6 9 5 14 8 ESE 1023,6 10
15.11.2018 16:00:00 13,6 6,9 8 4 - - E 1023,7 10
15.11.2018 15:00:00 14,3 6,9 8 4 14 8 ESE 1023,8 10
15.11.2018 14:00:00 14,5 6,8 5 3 14 8 ESE 1024,0 10
15.11.2018 13:00:00 13,4 6,5 9 5 - - SE 1024,4 10
15.11.2018 12:00:00 11,9 5,3 8 4 11 6 SE 1024,5 10
15.11.2018 11:00:00 10,3 4,6 4 2 18 10 - 1025,0 10
15.11.2018 10:00:00 8,1 4,3 13 7 - - SSE 1024,8 10
15.11.2018 09:00:00 4,2 3,5 2 1 11 6 - 1024,7 10
15.11.2018 08:00:00 3,8 3,1 8 4 11 6 SE 1024,7 10
15.11.2018 07:00:00 3,0 2,7 5 3 - - SE 1024,7 10
15.11.2018 06:00:00 4,2 3,4 4 2 4 2 E 1024,6 10
15.11.2018 05:00:00 4,2 3,3 4 2 7 4 E 1024,4 15
15.11.2018 04:00:00 4,7 3,6 4 2 - - ESE 1024,5 10
15.11.2018 03:00:00 5,1 4,0 5 3 11 6 ESE 1024,7 10
15.11.2018 02:00:00 6,5 4,3 9 5 14 8 S 1024,7 10
15.11.2018 01:00:00 7,0 4,6 11 6 - - S 1024,8 20
15.11.2018 00:00:00 7,7 5,0 13 7 22 12 S 1024,8 10
14.11.2018 23:00:00 7,7 5,2 15 8 22 12 S 1024,7 10
14.11.2018 22:00:00 7,6 5,5 11 6 - - SSE 1024,8 10
14.11.2018 21:00:00 7,4 5,9 11 6 14 8 SE 1025,1 10
14.11.2018 20:00:00 7,8 6,2 9 5 11 6 SE 1025,4 10
14.11.2018 19:00:00 8,5 6,4 9 5 - - ESE 1025,7 10
14.11.2018 18:00:00 9,5 6,4 8 4 11 6 SE 1025,7 10
14.11.2018 17:00:00 10,7 7,1 9 5 18 10 SE 1026,0 10
14.11.2018 16:00:00 12,1 6,9 11 6 - - SE 1026,5 10
14.11.2018 15:00:00 12,8 6,9 13 7 22 12 S 1026,7 10
14.11.2018 14:00:00 12,9 7,9 9 5 22 12 S 1027,1 10
14.11.2018 13:00:00 12,3 7,8 13 7 - - S 1027,4 10
14.11.2018 12:00:00 11,4 7,8 9 5 14 8 S 1028,0 10
14.11.2018 11:00:00 9,8 7,5 9 5 18 10 S 1028,2 10
14.11.2018 10:00:00 7,8 6,3 11 6 - - S 1028,3 28
14.11.2018 09:00:00 6,7 5,7 11 6 18 10 S 1028,3 10
14.11.2018 08:00:00 6,2 5,4 14 8 22 12 S 1028,0 24
14.11.2018 07:00:00 6,3 5,6 13 7 - - S 1027,7 10
14.11.2018 06:00:00 6,5 5,6 15 8 22 12 S 1028,0 10
14.11.2018 05:00:00 6,0 6,0 13 7 - - S - 10
14.11.2018 04:00:00 6,7 5,6 15 8 - - S 1028,7 10
14.11.2018 03:00:00 6,9 5,9 14 8 18 10 S 1029,3 25
14.11.2018 02:00:00 6,8 5,9 13 7 14 8 S 1029,3 10
14.11.2018 01:00:00 7,7 6,4 11 6 - - S 1029,4 10
14.11.2018 00:00:00 7,4 6,5 9 5 14 8 S 1029,4 10
13.11.2018 23:00:00 8,4 6,7 13 7 22 12 SSW 1029,2 10
13.11.2018 22:00:00 9,3 7,2 15 8 - - SSW 1029,1 10
13.11.2018 21:00:00 9,3 7,2 13 7 18 10 SSW 1028,7 10
13.11.2018 20:00:00 9,4 7,2 13 7 18 10 SSW 1028,4 10
13.11.2018 19:00:00 10,2 7,8 14 8 - - SSW 1027,9 25
13.11.2018 18:00:00 10,3 7,8 16 9 29 16 SW 1027,6 10
13.11.2018 17:00:00 11,2 8,0 18 10 36 19 SW 1027,1 10
13.11.2018 16:00:00 12,1 7,4 22 12 - - WSW 1026,4 10
13.11.2018 15:00:00 12,5 7,4 29 16 43 23 WSW 1025,6 10
13.11.2018 14:00:00 12,3 8,3 26 14 43 23 WSW 1025,2 10
13.11.2018 13:00:00 11,9 8,1 26 14 - - SW 1024,6 10
13.11.2018 12:00:00 11,3 7,8 28 15 47 25 SW 1024,2 10
13.11.2018 11:00:00 10,5 7,7 31 17 47 25 SW 1023,4 10
13.11.2018 10:00:00 10,6 7,6 28 15 - - SW 1022,9 10
13.11.2018 09:00:00 10,3 8,0 18 10 32 18 SW 1022,1 10
13.11.2018 08:00:00 9,9 8,0 18 10 32 18 SW 1021,4 10
13.11.2018 07:00:00 9,8 7,9 21 11 - - SSW 1020,5 10
13.11.2018 06:00:00 10,0 8,2 18 10 32 18 SW 1020,2 10
13.11.2018 05:00:00 9,7 8,1 18 10 29 16 SSW 1019,2 9
13.11.2018 04:00:00 9,5 7,9 18 10 - - S 1019,1 9
13.11.2018 03:00:00 9,4 7,8 16 9 22 12 S 1019,4 9
13.11.2018 02:00:00 9,2 7,7 16 9 25 14 S 1018,8 9
13.11.2018 01:00:00 9,0 7,7 16 9 - - S 1018,5 10
13.11.2018 00:00:00 8,9 7,7 15 8 22 12 S 1018,5 10
12.11.2018 23:00:00 8,8 7,7 13 7 18 10 S 1018,3 10
12.11.2018 22:00:00 8,8 7,5 11 6 - - SSW 1017,8 10
12.11.2018 21:00:00 9,0 7,7 15 8 22 12 S 1018,0 10
12.11.2018 20:00:00 9,2 7,9 15 8 22 12 S 1017,8 10
12.11.2018 19:00:00 9,4 8,2 16 9 - - SSW 1017,4 10
12.11.2018 18:00:00 9,6 8,7 11 6 18 10 SW 1016,5 10
12.11.2018 17:00:00 10,0 9,0 11 6 - - SSW - 10
12.11.2018 16:00:00 10,3 9,0 9 5 - - SW 1015,2 10
12.11.2018 15:00:00 10,7 8,6 9 5 18 10 WSW 1014,7 10
12.11.2018 14:00:00 10,8 9,5 8 4 11 6 WSW 1013,9 10
12.11.2018 13:00:00 10,4 9,3 9 5 - - WNW 1013,9 10
12.11.2018 12:00:00 10,8 10,2 11 6 18 10 W 1013,2 4,8
12.11.2018 11:00:00 10,6 10,3 8 4 11 6 WSW 1012,8 3,2
12.11.2018 10:00:00 10,3 10,0 4 2 - - - 1012,3 9
12.11.2018 09:00:00 10,1 9,9 5 3 11 6 S 1012,2 6
12.11.2018 08:00:00 10,2 9,8 8 4 11 6 S 1011,8 5
12.11.2018 07:00:00 10,2 9,9 7 4 - - S 1011,7 10
12.11.2018 06:00:00 10,2 9,8 9 5 11 6 S 1011,6 10
12.11.2018 05:00:00 10,1 9,7 4 2 11 6 SSE 1011,4 10
12.11.2018 04:00:00 10,4 9,6 9 5 - - S 1011,6 10
12.11.2018 03:00:00 10,5 9,5 9 5 18 10 S 1011,6 10
12.11.2018 02:00:00 10,6 9,7 11 6 18 10 S 1011,3 10
12.11.2018 01:00:00 10,3 9,5 9 5 - - S 1011,3 10
12.11.2018 00:00:00 10,3 9,4 9 5 14 8 S 1011,3 10
11.11.2018 23:00:00 10,4 9,6 13 7 14 8 S 1010,9 10
11.11.2018 22:00:00 9,9 9,4 5 3 - - S 1010,7 10
11.11.2018 21:00:00 10,7 9,5 9 5 18 10 SSW 1009,9 10
11.11.2018 20:00:00 10,8 10,1 11 6 18 10 SSW 1008,9 10
11.11.2018 19:00:00 10,6 10,2 9 5 - - SW 1008,5 4,5
11.11.2018 18:00:00 10,4 10,2 8 4 14 8 WNW 1007,4 2,7
11.11.2018 17:00:00 11,0 10,0 9 5 - - SW - 3,5
11.11.2018 16:00:00 11,4 9,4 24 13 - - SSW 1006,9 8
11.11.2018 15:00:00 11,8 9,8 24 13 36 19 SSW 1006,4 5
11.11.2018 14:00:00 11,7 10,1 22 12 43 23 SSW 1006,0 7
11.11.2018 13:00:00 12,8 9,2 26 14 - - SSW 1005,6 10
11.11.2018 12:00:00 13,0 8,6 24 13 47 25 SSW 1005,5 10
11.11.2018 11:00:00 12,6 8,6 28 15 47 25 SSW 1004,5 10
11.11.2018 10:00:00 12,2 8,3 28 15 - - SSW 1003,9 10
11.11.2018 09:00:00 11,6 8,8 24 13 36 19 SSW 1003,5 10
11.11.2018 08:00:00 10,8 8,7 24 13 40 21 S 1002,6 10
11.11.2018 07:00:00 10,7 8,9 25 14 - - S 1002,1 30
11.11.2018 06:00:00 10,8 9,0 26 14 47 25 S 1001,9 10
11.11.2018 05:00:00 12,0 9,0 26 14 - - S - 10
11.11.2018 04:00:00 11,5 8,9 22 12 - - S 1001,8 10
11.11.2018 03:00:00 11,4 9,3 21 11 40 21 S 1002,1 10
11.11.2018 02:00:00 11,8 9,2 24 13 36 19 S 1002,0 10
11.11.2018 01:00:00 11,5 9,2 18 10 - - S 1001,8 10
11.11.2018 00:00:00 11,4 9,6 16 9 29 16 S 1002,1 10
10.11.2018 23:00:00 11,0 9,5 15 8 25 14 S 1002,1 10
10.11.2018 22:00:00 11,3 10,0 14 8 - - S 1002,0 30
10.11.2018 21:00:00 10,7 9,4 13 7 22 12 S 1001,9 10
10.11.2018 20:00:00 10,8 9,3 11 6 25 14 S 1001,8 10
10.11.2018 19:00:00 10,9 8,8 14 8 - - S 1001,4 30
10.11.2018 18:00:00 11,6 9,8 13 7 29 16 S 1001,2 10
10.11.2018 17:00:00 12,0 10,0 13 7 - - S - 10
10.11.2018 16:00:00 11,8 10,6 13 7 - - S 1000,8 10
10.11.2018 15:00:00 11,7 10,5 18 10 29 16 S 1000,9 6
10.11.2018 14:00:00 11,4 10,4 16 9 32 18 S 1001,2 6
10.11.2018 13:00:00 12,0 10,5 18 10 - - S 1001,5 8
10.11.2018 12:00:00 11,9 10,2 21 11 32 18 S 1002,1 10
10.11.2018 11:00:00 12,3 9,7 21 11 36 19 SSW 1002,2 10
10.11.2018 10:00:00 12,1 9,6 22 12 - - S 1001,8 10
10.11.2018 09:00:00 11,9 9,3 22 12 40 21 SSW 1001,8 10
10.11.2018 08:00:00 11,5 9,4 28 15 43 23 SSW 1001,2 10
10.11.2018 07:00:00 11,2 9,6 29 16 - - S 1000,6 10
10.11.2018 06:00:00 11,2 9,4 31 17 54 29 S 1000,3 9
10.11.2018 05:00:00 12,0 9,0 24 13 - - S - 10
10.11.2018 04:00:00 12,1 8,4 21 11 - - S 1001,0 10
10.11.2018 03:00:00 11,8 8,7 21 11 32 18 SSE 1001,8 10
10.11.2018 02:00:00 11,7 8,6 18 10 36 19 SSE 1002,8 10
10.11.2018 01:00:00 11,7 8,8 21 11 - - S 1003,9 10
10.11.2018 00:00:00 11,2 8,6 18 10 29 16 S 1004,8 10

tt = Température de l'air
td = dewpoint
ff = Vitesse du vent
fx = gusts
dd = Direction du vent
ppp = reduced air pressure
vv = visibility

stations d'obs. à proximité